Simultaneous Nadir Overpasses (SNOs) Predictions

Prediction of SNOs between NOAA-19 and NPP Satellite Orbit:

Table of predicted SNOs for the next 14.0 days since TLE Epoch: 8/30/2013
Index Date (NOAA-19) Time (NOAA-19) Lat,Lon (NOAA-19) SZA (NOAA-19 ) Date (NPP) Time (NPP) Lat,Lon (NPP) SZA (NPP ) Distance(km) Time Diff (sec)
1 09/09/2013 21:05:38 80.96, 170.38 79.52 09/09/2013 21:06:32 80.95, 170.53 79.47 2.68 54
2 09/09/2013 21:56:34 -80.95, -22.03 100.52 09/09/2013 21:57:16 -80.94, -21.91 100.56 2.11 42
3 09/09/2013 22:47:41 80.94, 145.37 79.47 09/09/2013 22:48:01 80.94, 145.51 79.44 2.46 20
4 09/09/2013 23:38:37 -80.93, -47.04 100.57 09/09/2013 23:38:45 -80.93, -46.94 100.59 1.92 8
5 09/10/2013 00:29:44 80.92, 120.36 79.42 09/10/2013 00:29:30 80.92, 120.49 79.41 2.26 14
6 09/10/2013
